Tracking 30703 objects as of 13-Jun-2025
HD Live streaming from Space Station
objects crossing your sky now

STARLINK-31628

Track STARLINK-31628 now!
10-day predictions
STARLINK-31628 is classified as:


NORAD ID: 59342
Int'l Code: 2024-057Y
Perigee: 478.8 km
Apogee: 481.2 km
Inclination: 43.0 °
Period: 94.1 minutes
Semi major axis: 6851 km
RCS: Unknown
Launch date: March 25, 2024
Source: United States (US)
Launch site: AIR FORCE EASTERN TEST RANGE (AFETR)
Your satellite tracking list
Your tracking list is empty




NASA's NSSDC Master Catalog

Two Line Element Set (TLE):
1 59342U 24057Y   25163.83334491 -.01113162  00000-0 -39882-1 0  9991
2 59342  43.0006 271.3468 0001766 274.3687 134.8033 15.30977046 69858
Source of the keplerian elements: AFSPC